Flag for United Arab Emirates Weather past 2 weeks in Ras al-Khaimah, Ras al-Khaimah, United Arab Emirates

Now
84 °F

Clear.


Feels Like: 87 °F
Forecast: 69 / 94 °F
Wind: 8 mph from North

Location: Ras Al Khaimah International Airport

Current Time: Oct 24, 2014 at 6:38:10 PM

Latest Report: Oct 24, 2014 at 6:00 PM


Visibility: 10 mi

Pressure: 29.83 "Hg

Humidity: 58%

Dew point: 68 °F

Location of Ras al-KhaimahLocation

Historic Weather in Ras al-Khaimah — Graph

°F

Ras al-Khaimah temperature yesterday

Maximum temperature yesterday: 91 °F (at 11:00 AM)
Minimum temperature yesterday: 75 °F (at 7:00 AM)
Average temperature yesterday: 83 °F

Past Weeks' High & Low Weather Summary

 TemperatureHumidityPressure
High104 °F (Oct 10, 12:00 PM)100% (Oct 18, 7:00 AM)30.04 "Hg (Oct 18, 7:00 AM)
Low66 °F (Oct 24, 6:00 AM)16% (Oct 14, 9:00 AM)29.62 "Hg (Oct 14, 1:00 AM)
Average86 °F53%29.88 "Hg
* Reported Oct 9 5:00 PM — Oct 24 5:00 PM, Ras al-Khaimah, Weather by CustomWeather, © 2014

Note: Actual official high and low records may vary slightly from our data, if they occured in-between our weather recording intervals... More about our weather records

Advertising

Ras al-Khaimah weather history for previous 24 hours

 ConditionsComfort  
Time TempWeatherWind HumidityBarometerVisibility
5:00 PM
Oct 24
88 °FSunny.14 mph49%29.83 "Hg10 mi
4:00 PM90 °FSunny.12 mph46%29.83 "Hg10 mi
3:00 PM91 °FSunny.12 mph44%29.83 "Hg10 mi
2:00 PM93 °FSunny.9 mph39%29.83 "Hg10 mi
1:00 PM93 °FSunny.9 mph34%29.86 "Hg10 mi
12:00 PM91 °FSunny.3 mph36%29.89 "Hg10 mi
11:00 AM90 °FSunny.3 mph38%29.92 "Hg10 mi
10:00 AM86 °FSunny.2 mph46%29.95 "Hg10 mi
9:00 AM82 °FSunny.No wind55%29.95 "Hg10 mi
8:00 AM75 °FSunny.No wind65%29.92 "Hg10 mi
7:00 AM66 °FSunny.2 mph73%29.92 "Hg10 mi
6:00 AM66 °FClear.No wind78%29.89 "Hg10 mi
5:00 AM68 °FClear.2 mph69%29.89 "Hg10 mi
4:00 AM68 °FClear.3 mph73%29.89 "Hg10 mi
3:00 AM68 °FClear.2 mph73%29.89 "Hg10 mi
2:00 AM70 °FClear.3 mph69%29.89 "Hg10 mi
1:00 AM72 °FClear.3 mph69%29.92 "Hg10 mi
12:00 AM73 °FClear.5 mph65%29.92 "Hg10 mi
11:00 PM
Oct 23
75 °FClear.3 mph65%29.92 "Hg10 mi
10:00 PM77 °FClear.2 mph61%29.92 "Hg10 mi
9:00 PM81 °FClear.No wind58%29.92 "Hg10 mi
8:00 PM81 °FClear.2 mph58%29.92 "Hg10 mi
7:00 PM82 °FClear.5 mph58%29.92 "Hg10 mi
6:00 PM84 °FClear.8 mph55%29.89 "Hg10 mi
Weather by CustomWeather, © 2014

See weather overviewHow to use our weather pages